Wind_Speed
32 33 30 27 28 28 30 31 30 28 27 29 27 25 22 23 26 27 28 29 31 32 33 35 36 36 34 33 33 31 32 32 33 34 33 32 31 31 31 31 32 33 34 34
32 30 26 29 31 31 31 32 30 28 28 31 31 29 26 25 26 26 27 30 32 34 36 36 37 37 36 35 34 33 33 34 36 37 36 35 34 34 34 35 35 35 36 36
29 24 28 31 31 30 30 30 29 28 29 32 34 33 28 25 25 27 30 32 34 36 37 37 38 37 36 35 35 36 36 37 39 39 38 37 37 37 37 37 37 37 38 39
28 28 30 31 32 30 28 26 27 28 30 33 34 35 30 27 27 28 30 32 34 35 36 37 36 34 34 35 36 38 39 39 39 40 39 38 37 37 38 38 38 39 40 39
25 27 29 29 28 27 25 23 25 28 30 31 32 35 30 29 32 32 34 35 36 36 36 34 32 32 33 35 37 39 40 40 39 39 39 38 38 38 39 40 40 41 40 41
25 27 29 28 26 24 22 22 24 27 28 28 22 27 25 22 28 33 36 38 38 36 34 31 30 31 33 36 39 40 40 41 40 40 40 40 40 39 39 40 41 42 43 44
24 26 28 29 27 24 22 23 24 25 25 20 16 21 17 18 22 26 29 30 31 31 30 29 30 32 35 38 40 41 42 42 40 40 41 41 41 42 42 43 44 44 45 45
25 25 25 26 25 23 22 23 23 22 20 17 18 16 14 17 19 20 22 22 24 26 27 29 31 34 37 39 41 41 42 41 40 40 41 42 43 45 45 46 46 47 47 47
25 24 23 23 21 20 20 21 19 21 20 19 20 18 16 18 19 19 20 21 22 25 28 31 34 37 40 42 42 40 40 40 39 39 40 42 45 46 48 49 49 50 50 51
24 25 26 26 26 26 23 19 21 22 23 22 21 19 20 23 23 23 24 25 27 30 32 34 38 40 42 42 42 44 43 39 37 39 41 43 46 49 50 51 52 52 53 54
24 27 28 28 27 27 27 26 25 23 23 23 23 22 24 26 27 29 30 31 33 34 36 37 39 41 42 43 43 43 41 40 39 39 42 45 48 50 52 53 54 55 56 57
27 28 30 30 28 26 27 29 28 29 26 24 24 26 29 30 31 31 32 33 35 36 37 39 40 41 43 43 44 44 43 41 41 43 46 48 50 52 54 55 56 57 58 59
31 31 31 31 31 29 28 29 30 31 29 28 27 30 32 33 35 35 36 37 38 39 40 41 41 43 44 45 45 46 47 47 47 48 50 52 53 54 55 57 58 59 59 60
35 35 34 34 36 35 32 30 31 32 32 33 33 34 35 36 37 38 39 40 42 42 42 41 42 43 45 47 49 51 53 53 53 53 54 54 54 54 55 57 57 57 58 58
38 38 38 37 37 38 37 35 34 34 35 37 37 38 39 40 41 41 42 43 44 44 43 43 44 47 51 54 55 57 57 56 56 55 54 54 54 54 54 55 55 55 56 56
40 39 39 39 39 40 41 41 41 40 40 40 42 44 45 46 46 45 45 46 46 46 46 48 52 54 56 56 57 57 57 57 56 55 55 54 53 52 52 53 53 54 53 53
41 41 40 39 39 40 43 44 45 46 45 46 46 47 48 48 48 47 46 47 48 50 52 55 56 56 56 57 56 56 56 55 55 54 53 51 50 49 50 50 51 51 51 52
38 39 38 38 37 36 39 43 45 47 49 50 51 51 50 49 48 48 49 50 52 53 54 54 54 55 54 54 54 54 53 53 52 50 48 47 46 46 47 47 48 49 51 52
33 34 34 33 33 31 31 34 38 41 44 46 49 51 51 51 51 50 50 51 51 51 52 52 52 52 52 51 51 50 49 48 46 44 43 42 43 44 45 47 48 49 50 50
29 30 31 31 30 30 30 30 32 34 37 39 41 43 45 45 46 46 46 47 47 48 49 49 49 49 48 47 45 44 43 41 40 39 39 40 41 42 44 45 46 47 47 46
24 26 26 26 27 27 28 28 28 31 34 35 37 39 40 41 42 43 44 44 45 45 45 45 44 43 42 41 40 39 37 37 37 37 37 39 40 42 43 43 43 42 42 42
18 20 21 21 21 22 23 24 27 29 30 32 34 35 37 38 39 40 41 42 42 41 41 40 39 38 37 36 35 34 34 34 34 35 36 37 38 39 39 40 40 40 40 39
17 16 16 18 19 20 21 21 22 24 26 28 31 32 33 35 36 36 36 36 36 35 35 34 33 32 32 31 30 31 31 32 32 33 34 35 36 38 38 38 38 37 36 35
17 17 17 17 18 19 20 21 21 22 23 24 26 28 29 30 30 31 31 30 29 28 28 27 27 26 26 26 27 27 28 29 31 33 34 35 36 37 37 36 35 33 31 29
17 18 19 18 18 19 20 21 21 21 22 23 24 25 25 25 25 25 24 23 23 22 22 22 22 23 23 24 25 26 27 29 31 32 33 34 34 34 33 31 30 28 26 23
16 17 18 18 18 18 18 19 19 20 20 21 21 20 21 20 20 19 19 18 18 18 18 19 20 20 21 22 24 26 28 30 31 32 32 32 31 30 29 27 24 22 20 19
Wind_Direction
232 233 233 234 235 233 233 236 235 233 230 233 234 236 233 231 237 242 249 259 268 275 280 286 289 294 297 299 302 302 300 299 296 294 293 293 293 293 292 292 293 294 294 293
233 233 231 231 232 231 233 235 235 231 228 235 237 239 239 236 237 243 251 259 268 274 280 286 289 292 295 297 298 298 297 294 292 290 289 289 289 290 289 288 289 290 291 292
233 229 228 229 230 231 234 238 237 234 227 233 240 242 241 243 243 246 253 260 266 273 279 284 287 290 292 293 296 297 295 291 289 287 285 285 285 286 287 288 287 288 289 291
226 222 226 227 228 228 229 233 236 236 232 231 239 245 241 241 243 245 250 257 265 270 274 279 282 285 288 291 293 294 292 287 286 284 284 283 283 285 287 287 288 288 290 291
224 223 226 228 228 230 227 228 235 239 240 239 239 249 248 242 244 246 250 257 263 267 270 272 276 282 286 288 289 289 289 287 284 284 285 285 284 286 287 289 290 291 292 293
219 219 222 221 222 224 225 230 237 241 244 247 244 249 250 243 244 246 247 252 257 260 262 266 273 279 282 282 283 284 286 286 287 288 288 288 287 288 290 290 291 292 293 293
219 221 224 222 219 216 220 229 238 243 246 246 236 242 243 237 238 242 246 250 250 253 256 262 268 273 275 278 279 281 283 285 287 289 289 289 289 290 290 290 291 291 292 291
219 220 225 226 226 222 222 230 238 245 247 236 223 231 235 239 241 246 251 253 253 255 258 262 265 268 272 273 276 277 282 285 288 290 290 290 290 291 291 291 291 291 291 291
224 217 214 217 218 223 229 236 244 248 246 238 224 227 242 250 252 255 258 259 260 262 262 264 265 267 270 273 275 276 280 284 287 288 288 290 290 291 291 291 291 291 291 291
225 218 208 207 211 219 226 235 244 247 248 244 237 234 243 248 251 254 258 261 263 264 265 266 268 271 274 276 278 280 280 283 285 287 288 290 291 291 291 290 290 289 289 290
223 220 209 208 213 220 224 228 238 246 249 249 247 245 242 246 247 250 254 259 262 265 268 270 272 274 279 280 281 282 283 283 284 285 288 289 289 289 289 288 288 288 288 289
225 223 214 211 214 222 227 228 232 239 245 249 250 251 248 247 247 249 254 260 264 268 271 271 274 276 279 280 281 282 284 285 284 285 287 288 288 287 287 287 287 287 287 288
227 228 224 215 215 219 221 223 227 233 237 240 243 248 251 253 254 257 260 265 268 270 272 273 275 278 279 282 283 284 285 287 288 288 288 288 287 287 286 286 286 287 287 288
228 230 230 224 220 222 222 222 225 229 232 236 238 243 248 252 255 258 261 264 267 269 271 274 278 281 284 286 287 288 289 290 290 290 289 288 288 287 286 287 287 287 287 287
234 235 236 234 230 231 233 234 236 236 235 237 241 244 248 252 255 258 260 263 265 268 272 277 281 285 288 289 290 290 290 290 291 290 290 289 289 288 287 287 286 287 286 286
240 241 242 243 242 241 242 243 247 248 248 248 249 251 254 256 258 259 262 264 267 271 276 280 285 288 289 289 289 290 290 291 291 291 292 291 289 289 288 287 286 286 287 289
246 246 247 248 249 249 249 248 248 250 252 254 256 258 259 260 261 263 266 271 276 280 283 285 287 288 288 289 289 290 290 291 291 291 291 291 290 289 288 287 287 287 288 290
248 249 251 251 250 250 251 249 247 248 249 251 255 258 261 264 267 271 275 279 281 283 285 286 287 288 288 289 289 290 290 291 291 291 291 289 288 287 287 287 288 289 291 293
246 248 250 250 249 249 248 250 249 249 250 252 255 258 262 266 270 274 277 279 281 283 285 287 288 288 289 289 290 290 291 291 291 291 291 290 289 288 288 289 290 292 294 295
245 246 250 251 253 254 252 251 252 253 253 255 258 261 264 267 271 273 275 278 281 283 285 287 288 288 289 290 291 292 292 293 293 292 292 292 291 290 291 292 293 294 296 297
247 247 250 252 255 257 257 255 253 253 255 257 260 263 266 269 272 275 277 279 282 284 286 287 288 289 290 291 292 294 294 294 294 294 293 293 293 293 295 296 297 298 299 299
250 249 251 251 257 260 260 260 257 257 257 258 261 263 267 270 273 276 279 281 283 285 287 288 290 291 292 293 294 295 295 296 295 296 296 297 298 298 299 299 300 300 300 300
253 256 265 264 265 264 263 264 263 261 261 262 265 266 270 272 275 278 280 283 285 286 288 291 292 293 294 295 296 297 298 299 300 300 301 302 302 303 303 303 303 302 302 301
262 261 266 270 270 270 270 269 269 268 269 270 272 273 276 278 279 280 283 286 288 290 292 294 296 297 298 299 300 302 304 305 306 306 306 306 306 306 306 305 305 304 303 303
267 270 272 275 277 275 274 275 275 274 274 275 276 277 279 281 283 286 287 288 290 293 295 299 301 301 303 305 307 309 310 311 311 310 310 310 309 309 308 308 307 306 305 304
268 271 274 276 277 278 277 276 277 278 277 277 278 279 281 284 285 286 287 290 292 295 300 303 306 309 312 314 316 317 317 317 316 316 315 315 314 312 312 311 310 308 307 306
Height
5825 5829 5834 5838 5841 5844 5844 5846 5849 5853 5854 5853 5853 5855 5858 5860 5861 5861 5862 5863 5863 5863 5863 5862 5861 5861 5861 5860 5859 5859 5857 5855 5852 5849 5847 5847 5846 5845 5843 5842 5839 5837 5835 5833
5819 5824 5829 5830 5832 5835 5837 5839 5842 5846 5848 5847 5847 5848 5850 5853 5854 5856 5857 5858 5858 5858 5858 5857 5856 5854 5854 5853 5853 5853 5851 5849 5846 5843 5841 5840 5839 5837 5836 5834 5832 5830 5827 5825
5813 5819 5820 5822 5825 5828 5831 5834 5836 5839 5842 5841 5841 5842 5845 5846 5848 5850 5851 5852 5852 5852 5851 5851 5850 5849 5848 5847 5847 5846 5845 5842 5839 5836 5834 5832 5831 5829 5828 5826 5824 5822 5819 5818
5806 5810 5812 5815 5818 5821 5824 5828 5830 5832 5834 5835 5836 5835 5840 5841 5843 5844 5845 5846 5846 5846 5845 5845 5844 5843 5842 5841 5840 5839 5837 5834 5831 5828 5825 5823 5823 5822 5820 5818 5816 5814 5811 5809
5801 5804 5806 5809 5813 5815 5818 5821 5823 5825 5826 5828 5830 5830 5834 5837 5837 5838 5839 5838 5838 5838 5838 5838 5838 5837 5836 5835 5833 5831 5829 5826 5823 5820 5818 5817 5815 5814 5813 5810 5808 5805 5803 5800
5795 5797 5800 5804 5807 5810 5812 5816 5817 5819 5820 5822 5826 5826 5827 5830 5830 5830 5831 5831 5831 5831 5831 5831 5831 5830 5829 5828 5826 5824 5821 5819 5817 5814 5813 5811 5809 5807 5805 5803 5800 5798 5795 5792
5789 5792 5795 5798 5801 5803 5807 5810 5812 5813 5814 5817 5820 5819 5822 5822 5822 5822 5823 5823 5824 5824 5825 5825 5825 5824 5822 5820 5818 5815 5813 5811 5809 5807 5805 5803 5801 5799 5797 5795 5792 5789 5786 5783
5783 5788 5791 5794 5797 5799 5802 5804 5807 5809 5810 5812 5814 5814 5816 5815 5815 5815 5816 5817 5817 5817 5818 5818 5817 5816 5814 5812 5810 5807 5805 5803 5801 5800 5797 5796 5793 5791 5788 5785 5783 5779 5776 5773
5777 5783 5787 5790 5793 5795 5797 5799 5802 5803 5804 5806 5808 5810 5810 5809 5809 5810 5810 5810 5811 5811 5811 5811 5809 5808 5806 5804 5801 5798 5797 5795 5793 5792 5790 5787 5784 5781 5778 5775 5772 5769 5765 5761
5771 5777 5781 5784 5786 5788 5792 5794 5796 5797 5798 5800 5802 5804 5803 5802 5803 5804 5804 5805 5805 5805 5805 5804 5803 5801 5798 5796 5794 5792 5790 5787 5785 5783 5781 5778 5774 5771 5768 5764 5761 5757 5753 5749
5765 5770 5775 5778 5780 5782 5785 5788 5789 5791 5792 5794 5796 5799 5796 5796 5798 5798 5798 5798 5798 5798 5797 5796 5795 5793 5791 5789 5786 5783 5781 5779 5777 5774 5771 5768 5765 5761 5757 5753 5749 5745 5741 5737
5759 5763 5767 5772 5774 5776 5778 5780 5782 5784 5785 5787 5789 5792 5788 5789 5790 5791 5791 5792 5791 5790 5789 5788 5786 5785 5783 5781 5778 5775 5772 5770 5767 5764 5761 5757 5753 5749 5745 5741 5737 5732 5728 5723
5752 5756 5761 5766 5770 5770 5770 5771 5773 5775 5777 5779 5780 5782 5780 5781 5782 5783 5783 5783 5783 5782 5780 5779 5777 5776 5774 5771 5768 5765 5762 5759 5756 5753 5750 5745 5741 5736 5732 5728 5723 5718 5714 5709
5746 5749 5754 5758 5760 5762 5762 5763 5764 5766 5767 5769 5771 5771 5772 5772 5774 5774 5774 5774 5773 5773 5771 5770 5768 5766 5763 5760 5757 5754 5751 5748 5744 5740 5736 5732 5727 5723 5718 5714 5709 5704 5700 5695
5741 5743 5746 5750 5753 5755 5756 5756 5756 5757 5757 5760 5762 5763 5764 5765 5765 5765 5765 5764 5764 5763 5761 5759 5757 5755 5752 5749 5745 5742 5738 5734 5730 5726 5722 5717 5713 5708 5704 5699 5694 5690 5685 5681
5734 5736 5739 5742 5745 5747 5748 5749 5749 5749 5749 5751 5754 5756 5757 5757 5757 5757 5756 5755 5753 5752 5750 5748 5746 5743 5740 5736 5733 5729 5724 5720 5715 5711 5707 5702 5698 5693 5689 5685 5680 5675 5671 5666
5724 5728 5731 5733 5736 5737 5739 5740 5740 5742 5743 5745 5747 5749 5748 5748 5748 5746 5745 5744 5743 5741 5739 5737 5734 5731 5727 5723 5719 5715 5710 5706 5701 5697 5692 5688 5684 5679 5675 5671 5666 5662 5658 5653
5715 5717 5720 5723 5726 5728 5728 5728 5730 5733 5734 5737 5738 5739 5739 5739 5738 5736 5735 5733 5732 5730 5728 5725 5721 5718 5714 5710 5706 5702 5697 5692 5688 5683 5679 5675 5670 5666 5662 5658 5653 5649 5645 5640
5706 5709 5711 5713 5715 5717 5718 5718 5721 5723 5725 5727 5728 5728 5728 5728 5728 5727 5725 5723 5721 5719 5716 5713 5709 5706 5702 5698 5694 5689 5684 5680 5675 5671 5666 5662 5658 5654 5650 5646 5642 5637 5633 5628
5699 5701 5703 5704 5706 5708 5711 5711 5712 5715 5715 5717 5717 5718 5718 5718 5718 5717 5715 5713 5710 5708 5705 5701 5698 5694 5690 5686 5682 5677 5672 5668 5664 5660 5655 5651 5647 5643 5639 5634 5629 5625 5620 5615
5692 5693 5695 5696 5698 5700 5702 5703 5705 5708 5708 5708 5708 5708 5708 5708 5708 5706 5704 5702 5700 5697 5694 5691 5687 5683 5679 5675 5671 5666 5662 5658 5654 5649 5645 5641 5636 5632 5627 5623 5618 5613 5608 5603
5686 5688 5689 5691 5692 5696 5695 5696 5698 5698 5699 5699 5699 5699 5699 5699 5698 5696 5695 5692 5690 5687 5683 5680 5676 5673 5669 5665 5661 5657 5653 5648 5644 5640 5635 5631 5626 5621 5616 5611 5607 5602 5597 5592
5682 5683 5684 5686 5688 5688 5688 5689 5689 5690 5691 5691 5691 5691 5691 5690 5689 5688 5686 5683 5680 5677 5674 5671 5667 5663 5660 5656 5652 5648 5644 5640 5635 5631 5626 5621 5616 5611 5606 5601 5596 5591 5586 5582
5677 5678 5679 5680 5681 5681 5682 5682 5683 5683 5683 5683 5683 5683 5682 5681 5680 5679 5677 5674 5672 5669 5666 5663 5659 5656 5652 5649 5645 5641 5637 5632 5627 5622 5617 5612 5607 5601 5596 5591 5586 5581 5577 5573
5673 5673 5673 5674 5675 5675 5675 5676 5676 5676 5676 5676 5676 5675 5674 5673 5672 5670 5669 5667 5665 5663 5660 5657 5654 5650 5647 5643 5639 5635 5630 5625 5620 5614 5609 5603 5597 5592 5587 5582 5577 5573 5569 5566
5668 5669 5669 5669 5670 5670 5670 5670 5670 5670 5669 5669 5669 5668 5667 5666 5665 5664 5663 5661 5660 5658 5655 5652 5649 5646 5642 5638 5633 5628 5623 5618 5612 5606 5600 5595 5589 5584 5579 5575 5570 5566 5563 5560